TimeEDT,TemperatureF,Dew PointF,Humidity,Sea Level PressureIn,VisibilityMPH,Wind Direction,Wind SpeedMPH,Gust SpeedMPH,PrecipitationIn,Events,Conditions,WindDirDegrees,DateUTC
12:53 AM,72.0,70.0,93,29.93,5.0,NNW,4.6,-,0.10,Rain,Light Rain,340,2012-05-17 04:53:00
1:53 AM,72.0,70.0,93,29.92,10.0,South,5.8,-,0.04,,Overcast,180,2012-05-17 05:53:00
2:53 AM,73.0,70.0,90,29.90,10.0,SW,3.5,-,N/A,,Partly Cloudy,220,2012-05-17 06:53:00
3:43 AM,73.4,69.8,88,29.89,7.0,SW,8.1,-,0.00,Rain,Light Rain,230,2012-05-17 07:43:00
3:53 AM,73.0,71.1,93,29.90,4.0,SSW,11.5,-,0.02,Rain,Light Rain,200,2012-05-17 07:53:00
4:12 AM,71.6,71.6,100,29.90,10.0,South,11.5,-,0.03,,Overcast,190,2012-05-17 08:12:00
4:31 AM,71.6,71.6,100,29.89,10.0,South,9.2,-,0.03,,Mostly Cloudy,180,2012-05-17 08:31:00
4:53 AM,73.0,71.1,93,29.90,10.0,South,9.2,-,0.03,,Mostly Cloudy,190,2012-05-17 08:53:00
5:53 AM,73.0,71.1,93,29.90,10.0,Calm,Calm,-,N/A,,Mostly Cloudy,0,2012-05-17 09:53:00
6:53 AM,73.9,71.1,91,29.91,10.0,Calm,Calm,-,N/A,,Clear,0,2012-05-17 10:53:00
7:53 AM,75.0,71.1,87,29.92,10.0,Calm,Calm,-,N/A,,Partly Cloudy,0,2012-05-17 11:53:00
8:34 AM,75.2,71.6,89,29.93,10.0,Variable,3.5,-,N/A,,Mostly Cloudy,0,2012-05-17 12:34:00
8:53 AM,77.0,72.0,84,29.92,10.0,South,3.5,-,N/A,,Mostly Cloudy,190,2012-05-17 12:53:00
9:02 AM,75.2,71.6,89,29.92,10.0,SW,4.6,-,N/A,,Scattered Clouds,230,2012-05-17 13:02:00
9:10 AM,75.2,71.6,89,29.93,10.0,SSW,8.1,-,N/A,,Mostly Cloudy,210,2012-05-17 13:10:00
9:22 AM,77.0,71.6,83,29.93,10.0,SW,6.9,-,N/A,,Scattered Clouds,220,2012-05-17 13:22:00
9:31 AM,77.0,71.6,83,29.93,10.0,South,6.9,-,N/A,,Mostly Cloudy,190,2012-05-17 13:31:00
9:53 AM,78.1,71.1,79,29.94,10.0,SSW,6.9,-,N/A,,Mostly Cloudy,210,2012-05-17 13:53:00
10:16 AM,78.8,69.8,74,29.93,10.0,West,4.6,-,N/A,,Mostly Cloudy,270,2012-05-17 14:16:00
10:27 AM,78.8,69.8,74,29.94,10.0,Variable,4.6,-,N/A,,Mostly Cloudy,0,2012-05-17 14:27:00
10:35 AM,78.8,69.8,74,29.93,10.0,SSW,4.6,-,N/A,,Scattered Clouds,210,2012-05-17 14:35:00
10:46 AM,78.8,69.8,74,29.94,10.0,West,5.8,-,N/A,,Mostly Cloudy,270,2012-05-17 14:46:00
10:53 AM,79.0,70.0,74,29.94,10.0,West,6.9,-,N/A,,Scattered Clouds,270,2012-05-17 14:53:00
11:37 AM,80.6,69.8,70,29.94,10.0,SW,6.9,-,N/A,,Mostly Cloudy,220,2012-05-17 15:37:00
11:53 AM,80.1,69.1,69,29.94,10.0,Variable,4.6,-,N/A,,Overcast,0,2012-05-17 15:53:00
12:15 PM,80.6,69.8,70,29.93,10.0,Calm,Calm,-,N/A,,Mostly Cloudy,0,2012-05-17 16:15:00
12:53 PM,81.0,68.0,65,29.92,10.0,West,6.9,-,N/A,,Mostly Cloudy,270,2012-05-17 16:53:00
1:53 PM,82.0,70.0,67,29.91,10.0,East,5.8,-,N/A,,Overcast,80,2012-05-17 17:53:00
2:53 PM,82.0,69.1,65,29.89,10.0,North,-9999.0,-,N/A,,Overcast,0,2012-05-17 18:53:00
3:18 PM,82.4,66.2,58,29.88,10.0,NW,13.8,31.1,N/A,,Squalls,320,2012-05-17 19:18:00
3:53 PM,82.9,64.9,54,29.88,10.0,NNW,8.1,-,N/A,,Partly Cloudy,330,2012-05-17 19:53:00
4:53 PM,82.9,66.0,56,29.86,10.0,North,10.4,16.1,N/A,,Clear,350,2012-05-17 20:53:00
5:53 PM,82.0,66.0,58,29.87,10.0,NNW,8.1,-,N/A,,Clear,330,2012-05-17 21:53:00
6:53 PM,81.0,64.9,58,29.87,10.0,WNW,5.8,-,N/A,,Clear,300,2012-05-17 22:53:00
7:53 PM,79.0,68.0,69,29.87,10.0,WNW,8.1,-,N/A,,Clear,290,2012-05-17 23:53:00
8:53 PM,78.1,69.1,74,29.89,10.0,WNW,4.6,-,N/A,,Clear,300,2012-05-18 00:53:00
9:53 PM,78.1,69.1,74,29.90,10.0,NW,5.8,-,N/A,,Clear,310,2012-05-18 01:53:00
10:53 PM,77.0,69.1,76,29.91,10.0,NW,5.8,-,N/A,,Clear,310,2012-05-18 02:53:00
11:53 PM,77.0,69.1,76,29.93,10.0,NNW,4.6,-,N/A,,Clear,330,2012-05-18 03:53:00